Glendale Luke AFB, AZ

6:34 PM MST on December 06, 2019 (GMT -0700)
Luke Air Force Base

Weather History for KLUF - August, 2019

Change the Weather History Date:

Friday, August 2, 2019

  Actual Average Record
Temperature  
Mean Temperature 98 °F -  
Max Temperature 109 °F 108 °F 116 °F (1972)
Min Temperature 87 °F 76 °F 67 °F (1920)
Cooling Degree Days 33    
Growing Degree Days 48 (Base 50)    
Moisture  
Dew Point 60 °F    
Average Humidity 29    
Maximum Humidity 46    
Minimum Humidity 17    
Precipitation  
Precipitation 0.00 in - - ()
Sea Level Pressure  
Sea Level Pressure 29.77 in    
Wind  
Wind Speed 5 mph (SW)    
Max Wind Speed 16 mph    
Max Gust Speed 22 mph    
Visibility 10 miles    
Events      
Averages and records for this station are not official NWS values.
T = Trace of Precipitation, MM = Missing Value Source: NWS Daily Summary

Daily Weather History Graph

Daily Weather History Graph

Search for Another Location

Airport or City:

Astronomy

Aug. 02, 2019 Rise Set
Actual Time 5:42 AM MST 7:28 PM MST
Civil Twilight 5:15 AM MST 7:55 PM MST
Nautical Twilight 4:42 AM MST 8:28 PM MST
Astronomical Twilight 4:07 AM MST 9:02 PM MST
Moon 7:23 AM MST (8/2) 9:04 PM MST (8/2)
Length of Visible Light 14h 40m
Length of Day
13h 46m
Waxing Crescent, 4% of the Moon is Illuminated
Aug 2
Waxing Crescent
Aug 7
First Quarter
Aug 15
Full
Aug 23
Last Quarter
Aug 30
New

Hourly Weather History & Observations

Time (MST) Temp. Heat Index Dew Point Humidity Pressure Visibility Wind Dir Wind Speed Gust Speed Precip Events Conditions
12:58 AM 92.3 °F 95.1 °F 65.8 °F 42% 29.78 in 10.0 mi NNE 5.8 mph - N/A   Clear
1:58 AM 91.9 °F 93.7 °F 64.8 °F 40% 29.78 in 10.0 mi Calm Calm - N/A   Clear
2:58 AM 90.9 °F 92.7 °F 64.6 °F 42% 29.78 in 10.0 mi Calm Calm - N/A   Clear
3:58 AM 90.0 °F 90.6 °F 63.0 °F 40% 29.79 in 10.0 mi Calm Calm - N/A   Clear
4:58 AM 88.5 °F 90.1 °F 64.9 °F 45% 29.80 in 10.0 mi Calm Calm - N/A   Clear
5:58 AM 87.4 °F 88.8 °F 64.6 °F 46% 29.83 in 10.0 mi Calm Calm - N/A   Clear
6:58 AM 89.1 °F 90.6 °F 64.2 °F 44% 29.84 in 10.0 mi NNW 3.5 mph - N/A   Clear
7:58 AM 93.0 °F 95.0 °F 64.4 °F 39% 29.84 in 10.0 mi North 3.5 mph - N/A   Clear
8:58 AM 96.4 °F 97.9 °F 63.3 °F 33% 29.84 in 10.0 mi Calm Calm - N/A   Clear
9:58 AM 99.0 °F 100.5 °F 62.1 °F 30% 29.84 in 10.0 mi SSW 3.5 mph - N/A   Clear
10:58 AM 101.3 °F 102.2 °F 61.0 °F 26% 29.83 in 10.0 mi Calm Calm - N/A   Clear
11:58 AM 104.2 °F 104.9 °F 59.0 °F 23% 29.81 in 10.0 mi South 5.8 mph - N/A   Partly Cloudy
12:58 PM 106.5 °F 107.3 °F 58.3 °F 21% 29.79 in 10.0 mi West 8.1 mph - N/A   Partly Cloudy
1:58 PM 108.0 °F 108.0 °F 56.7 °F 19% 29.77 in 10.0 mi South 9.2 mph 21.9 mph N/A   Clear
2:37 PM 107.6 °F 107.5 °F 57.2 °F 19% 29.74 in 10.0 mi SSW 16.1 mph 17.3 mph N/A   Clear
2:58 PM 108.3 °F 108.6 °F 57.0 °F 19% 29.74 in 10.0 mi South 11.5 mph 16.1 mph N/A   Clear
3:35 PM 109.4 °F 109.4 °F 57.2 °F 18% 29.72 in 10.0 mi WSW 15.0 mph 21.9 mph N/A   Clear
3:58 PM 109.6 °F 108.9 °F 54.9 °F 17% 29.71 in 10.0 mi SW 13.8 mph - N/A   Clear
4:58 PM 109.0 °F 108.1 °F 54.5 °F 17% 29.69 in 10.0 mi SW 12.7 mph - N/A   Clear
5:58 PM 108.0 °F 108.0 °F 56.7 °F 19% 29.69 in 10.0 mi SSW 13.8 mph - N/A   Clear
6:58 PM 107.1 °F 106.7 °F 55.9 °F 19% 29.70 in 10.0 mi SW 11.5 mph - N/A   Clear
7:58 PM 105.1 °F 105.0 °F 57.2 °F 21% 29.72 in 10.0 mi SW 9.2 mph - N/A   Clear
8:58 PM 101.5 °F 101.3 °F 57.9 °F 24% 29.75 in 10.0 mi NE 11.5 mph - N/A   Clear
9:58 PM 98.1 °F 96.8 °F 56.1 °F 25% 29.76 in 10.0 mi NNE 9.2 mph - N/A   Clear
10:58 PM 96.8 °F 95.8 °F 57.2 °F 27% 29.77 in 10.0 mi NNE 3.5 mph - N/A   Clear
11:58 PM 95.0 °F 94.4 °F 58.6 °F 30% 29.77 in 10.0 mi ENE 6.9 mph - N/A   Partly Cloudy